Flag for Germany Weather past 2 weeks in Bad Neuenahr-Ahrweiler, Rhineland-Palatinate, Germany

Now
50 °F

Passing clouds.


Feels Like: 46 °F
Forecast: 45 / 53 °F
Wind: 10 mph from Southwest

Location: Bonn-Hangelar

Current Time: Dec 22, 2014 at 11:31:40 PM

Latest Report: Dec 22, 2014 at 11:00 PM


Visibility: 19 mi

Pressure: 30.13 "Hg

Humidity: 91%

Dew point: 48 °F

Location of Bad Neuenahr-AhrweilerLocation

Historic Weather in Bad Neuenahr-Ahrweiler — Graph

°F

Bad Neuenahr-Ahrweiler temperature yesterday

Maximum temperature yesterday: 44 °F (at 7:00 PM)
Minimum temperature yesterday: 38 °F (at 6:00 AM)
Average temperature yesterday: 41 °F

Past Weeks' High & Low Weather Summary

 TemperatureHumidityPressure
High53 °F (Dec 18, 6:00 PM)100% (Dec 8, 1:00 AM)30.45 "Hg (Dec 8, 1:00 AM)
Low32 °F (Dec 8, 7:00 PM)73% (Dec 10, 3:00 AM)29.41 "Hg (Dec 12, 4:00 PM)
Average41 °F93%30.00 "Hg
* Reported Dec 7 10:00 PM — Dec 22 10:00 PM, Bad Neuenahr-Ahrweiler, Weather by CustomWeather, © 2014

Note: Actual official high and low records may vary slightly from our data, if they occured in-between our weather recording intervals... More about our weather records

Advertising

Bad Neuenahr-Ahrweiler weather history for previous 24 hours

 ConditionsComfort  
Time TempWeatherWind HumidityBarometerVisibility
10:00 PM
Dec 22
50 °FLight freezing rain. Passing clouds.12 mph93%30.13 "Hg6 mi
9:00 PM49 °FDrizzle. Low clouds.14 mph94%30.12 "Hg9 mi
8:00 PM49 °FDrizzle. Low clouds.13 mph95%30.13 "Hg5 mi
7:00 PM49 °FDrizzle. Low clouds.12 mph94%30.13 "Hg12 mi
6:00 PM49 °FLow clouds.13 mph94%30.12 "Hg19 mi
5:00 PM49 °FLow clouds.13 mph95%30.13 "Hg16 mi
4:00 PM48 °FDrizzle. Low clouds.13 mph96%30.12 "Hg3 mi
3:00 PM47 °FDrizzle. Low clouds.14 mph94%30.12 "Hg12 mi
2:00 PM46 °FLow clouds.14 mph94%30.13 "Hg12 mi
1:00 PM46 °FLow clouds.16 mph93%30.14 "Hg25 mi
12:00 PM45 °FLow clouds.16 mph94%30.16 "Hg22 mi
11:00 AM44 °FRain. Low clouds.14 mph96%30.17 "Hg2 mi
10:00 AM44 °FRain. Low clouds.14 mph96%30.19 "Hg5 mi
9:00 AM44 °FOvercast.13 mph92%30.19 "Hg25 mi
8:00 AM44 °FOvercast.12 mph92%30.19 "Hg37 mi
7:00 AM44 °FLow clouds.13 mph94%30.18 "Hg31 mi
6:00 AM45 °FLow clouds.13 mph91%30.19 "Hg31 mi
5:00 AM45 °FLow clouds.12 mph94%30.21 "Hg14 mi
4:00 AM44 °FLow clouds.13 mph94%30.22 "Hg11 mi
3:00 AM44 °FLow clouds.14 mph93%30.23 "Hg12 mi
2:00 AM44 °FLow clouds.14 mph92%30.24 "Hg14 mi
1:00 AM44 °FPassing clouds.15 mph89%30.25 "Hg18 mi
12:00 AM44 °FOvercast.14 mph88%30.26 "Hg19 mi
11:00 PM
Dec 21
44 °FPassing clouds.13 mph89%30.28 "Hg22 mi
Weather by CustomWeather, © 2014

See weather overviewHow to use our weather pages